FLOCK 3P-72

Last updated on Wed Feb 14 2018 16:20:34 GMT+0000 (Coordinated Universal Time)

1 42051U 17008DH 18044.90301170 .00002273 00000-0 97572-4 0 9994 2 42051 97.4693 110.5862 0009615 74.4281 285.8017 15.23707258 52819
UTC large
Height (km)
Speed (km/s)
/
Latitude / Longitude
Inclination (degrees)
Orbital Period (minutes)
Azimuth
Elevation
Range (km)
Doppler Factor

Next 0 passes for location: London (51.5072 / 0.1276)

Sorry there are no passes over London.